Time,TemperatureF,DewpointF,PressureIn,WindDirection,WindDirectionDegrees,WindSpeedMPH,WindSpeedGustMPH,Humidity,HourlyPrecipIn,Conditions,Clouds,dailyrainin,SolarRadiationWatts/m^2,SoftwareType,DateUTC
2013-11-10 00:02:00,37.0,27.0,-100.00,WNW,299,6.0,18.0,67,0.00,,,0.01,0.000000,,2013-11-10 06:02:00,
2013-11-10 00:42:00,37.0,28.0,-100.00,NW,304,6.0,18.0,69,0.00,,,0.00,0.000000,,2013-11-10 06:42:00,
2013-11-10 00:52:00,37.0,28.0,-100.00,NW,304,6.0,18.0,69,0.00,,,0.00,0.000000,,2013-11-10 06:52:00,
2013-11-10 01:02:00,37.0,28.0,-100.00,NW,304,6.0,18.0,69,0.00,,,0.00,0.000000,,2013-11-10 07:02:00,
2013-11-10 01:43:00,37.0,28.0,-100.00,WNW,300,5.0,17.0,71,0.00,,,0.00,0.000000,,2013-11-10 07:43:00,
2013-11-10 01:52:00,37.0,28.0,-100.00,WNW,300,5.0,17.0,71,0.00,,,0.00,0.000000,,2013-11-10 07:52:00,
2013-11-10 02:02:00,37.0,28.0,-100.00,WNW,300,5.0,17.0,71,0.00,,,0.00,0.000000,,2013-11-10 08:02:00,
2013-11-10 02:43:00,38.0,28.0,-100.00,NW,323,9.0,20.0,67,0.00,,,0.00,0.000000,,2013-11-10 08:43:00,
2013-11-10 02:52:00,38.0,28.0,-100.00,NW,323,9.0,20.0,67,0.00,,,0.00,0.000000,,2013-11-10 08:52:00,
2013-11-10 03:02:00,38.0,28.0,-100.00,NW,323,9.0,20.0,67,0.00,,,0.00,0.000000,,2013-11-10 09:02:00,
2013-11-10 03:43:00,38.0,26.0,-100.00,NNW,333,10.0,19.0,62,0.00,,,0.00,0.000000,,2013-11-10 09:43:00,
2013-11-10 03:53:00,38.0,26.0,-100.00,NNW,333,10.0,19.0,62,0.00,,,0.00,0.000000,,2013-11-10 09:53:00,
2013-11-10 04:03:00,38.0,26.0,-100.00,NNW,333,10.0,19.0,62,0.00,,,0.00,0.000000,,2013-11-10 10:03:00,
2013-11-10 04:42:00,38.0,27.0,-100.00,NNW,331,9.0,16.0,65,0.00,,,0.00,0.000000,,2013-11-10 10:42:00,
2013-11-10 04:53:00,38.0,27.0,-100.00,NNW,331,9.0,16.0,65,0.00,,,0.00,0.000000,,2013-11-10 10:53:00,
2013-11-10 05:02:00,38.0,27.0,-100.00,NNW,331,9.0,16.0,65,0.00,,,0.00,0.000000,,2013-11-10 11:02:00,
2013-11-10 05:43:00,38.0,26.0,-100.00,NNW,337,6.0,23.0,61,0.00,,,0.00,0.000000,,2013-11-10 11:43:00,
2013-11-10 05:52:00,38.0,26.0,-100.00,NNW,337,6.0,23.0,61,0.00,,,0.00,0.000000,,2013-11-10 11:52:00,
2013-11-10 06:02:00,38.0,26.0,-100.00,NNW,337,6.0,23.0,61,0.00,,,0.00,0.000000,,2013-11-10 12:02:00,
2013-11-10 09:43:00,39.0,25.0,-100.00,WNW,287,4.0,8.0,57,-99.99,,,0.00,200.000000,,2013-11-10 15:43:00,
2013-11-10 09:53:00,39.0,25.0,-100.00,WNW,287,4.0,8.0,57,-99.99,,,0.00,200.000000,,2013-11-10 15:53:00,
2013-11-10 10:03:00,39.0,25.0,-100.00,WNW,287,4.0,8.0,57,-99.99,,,0.00,200.000000,,2013-11-10 16:03:00,
2013-11-10 10:42:00,40.0,24.0,-100.00,NNW,331,6.0,11.0,53,0.00,,,0.00,298.000000,,2013-11-10 16:42:00,
2013-11-10 10:53:00,40.0,24.0,-100.00,NNW,331,6.0,11.0,53,0.00,,,0.00,298.000000,,2013-11-10 16:53:00,
2013-11-10 11:02:00,40.0,24.0,-100.00,NNW,331,6.0,11.0,53,0.00,,,0.00,298.000000,,2013-11-10 17:02:00,
2013-11-10 11:43:00,42.0,25.0,-100.00,WNW,300,3.0,11.0,50,0.00,,,0.00,421.000000,,2013-11-10 17:43:00,
2013-11-10 11:52:00,42.0,25.0,-100.00,WNW,300,3.0,11.0,50,0.00,,,0.00,421.000000,,2013-11-10 17:52:00,
2013-11-10 12:02:00,42.0,25.0,-100.00,WNW,300,3.0,11.0,50,0.00,,,0.00,421.000000,,2013-11-10 18:02:00,
2013-11-10 12:42:00,44.0,25.0,-100.00,WNW,291,5.0,12.0,47,0.00,,,0.00,468.000000,,2013-11-10 18:42:00,
2013-11-10 12:52:00,44.0,25.0,-100.00,WNW,291,5.0,12.0,47,0.00,,,0.00,468.000000,,2013-11-10 18:52:00,
2013-11-10 13:01:00,44.0,25.0,-100.00,WNW,291,5.0,12.0,47,0.00,,,0.00,468.000000,,2013-11-10 19:01:00,
2013-11-10 13:42:00,46.0,26.0,-100.00,West,272,4.0,13.0,45,0.00,,,0.00,480.000000,,2013-11-10 19:42:00,
2013-11-10 13:52:00,46.0,26.0,-100.00,West,272,4.0,13.0,45,0.00,,,0.00,480.000000,,2013-11-10 19:52:00,
2013-11-10 14:02:00,46.0,26.0,-100.00,West,272,4.0,13.0,45,0.00,,,0.00,480.000000,,2013-11-10 20:02:00,
2013-11-10 14:43:00,46.0,25.0,-100.00,SW,234,5.0,12.0,44,0.00,,,0.00,406.000000,,2013-11-10 20:43:00,
2013-11-10 14:52:00,46.0,25.0,-100.00,SW,234,5.0,12.0,44,0.00,,,0.00,406.000000,,2013-11-10 20:52:00,
2013-11-10 15:02:00,46.0,25.0,-100.00,SW,234,5.0,12.0,44,0.00,,,0.00,406.000000,,2013-11-10 21:02:00,
2013-11-10 15:43:00,44.0,24.0,-100.00,WSW,245,7.0,14.0,45,0.00,,,0.00,207.000000,,2013-11-10 21:43:00,
2013-11-10 15:55:00,44.0,24.0,-100.00,WSW,245,7.0,14.0,45,0.00,,,0.00,207.000000,,2013-11-10 21:55:00,
2013-11-10 16:04:00,44.0,24.0,-100.00,WSW,245,7.0,14.0,45,0.00,,,0.00,207.000000,,2013-11-10 22:04:00,
2013-11-10 16:43:00,43.0,26.0,-100.00,WSW,244,4.0,12.0,51,0.00,,,0.00,32.000000,,2013-11-10 22:43:00,
2013-11-10 16:54:00,43.0,26.0,-100.00,WSW,244,4.0,12.0,51,0.00,,,0.00,32.000000,,2013-11-10 22:54:00,
2013-11-10 17:03:00,43.0,26.0,-100.00,WSW,244,4.0,12.0,51,0.00,,,0.00,32.000000,,2013-11-10 23:03:00,
2013-11-10 17:43:00,41.0,27.0,-100.00,SW,227,4.0,11.0,56,0.00,,,0.00,7.000000,,2013-11-10 23:43:00,
2013-11-10 17:53:00,41.0,27.0,-100.00,SW,227,4.0,11.0,56,0.00,,,0.00,7.000000,,2013-11-10 23:53:00,
2013-11-10 18:02:00,41.0,27.0,-100.00,SW,227,4.0,11.0,56,0.00,,,0.00,7.000000,,2013-11-11 00:02:00,
2013-11-10 18:42:00,41.0,28.0,-100.00,SW,216,3.0,8.0,60,0.00,,,0.00,0.000000,,2013-11-11 00:42:00,
2013-11-10 18:52:00,41.0,28.0,-100.00,SW,216,3.0,8.0,60,0.00,,,0.00,0.000000,,2013-11-11 00:52:00,
2013-11-10 19:02:00,41.0,28.0,-100.00,SW,216,3.0,8.0,60,0.00,,,0.00,0.000000,,2013-11-11 01:02:00,
2013-11-10 19:42:00,41.0,29.0,-100.00,SW,229,4.0,10.0,61,0.00,,,0.00,0.000000,,2013-11-11 01:42:00,
2013-11-10 19:52:00,41.0,29.0,-100.00,SW,229,4.0,10.0,61,0.00,,,0.00,0.000000,,2013-11-11 01:52:00,
2013-11-10 20:02:00,41.0,29.0,-100.00,SW,229,4.0,10.0,61,0.00,,,0.00,0.000000,,2013-11-11 02:02:00,
2013-11-10 20:42:00,40.0,29.0,-100.00,SSW,200,1.0,9.0,65,0.00,,,0.00,0.000000,,2013-11-11 02:42:00,
2013-11-10 20:52:00,40.0,29.0,-100.00,SSW,200,1.0,9.0,65,0.00,,,0.00,0.000000,,2013-11-11 02:52:00,
2013-11-10 21:02:00,40.0,29.0,-100.00,SSW,200,1.0,9.0,65,0.00,,,0.00,0.000000,,2013-11-11 03:02:00,
2013-11-10 21:44:00,40.0,30.0,-100.00,SW,224,3.0,6.0,68,0.00,,,0.00,0.000000,,2013-11-11 03:44:00,
2013-11-10 21:55:00,40.0,30.0,-100.00,SW,224,3.0,6.0,68,0.00,,,0.00,0.000000,,2013-11-11 03:55:00,
2013-11-10 22:04:00,40.0,30.0,-100.00,SW,224,3.0,6.0,68,0.00,,,0.00,0.000000,,2013-11-11 04:04:00,
2013-11-10 22:43:00,40.0,30.0,-100.00,SSW,207,3.0,9.0,68,0.00,,,0.00,0.000000,,2013-11-11 04:43:00,
2013-11-10 22:53:00,40.0,30.0,-100.00,SSW,207,3.0,9.0,68,0.00,,,0.00,0.000000,,2013-11-11 04:53:00,
2013-11-10 23:03:00,40.0,30.0,-100.00,SSW,207,3.0,9.0,68,0.00,,,0.00,0.000000,,2013-11-11 05:03:00,
2013-11-10 23:44:00,39.0,30.0,-100.00,SW,221,4.0,10.0,69,0.00,,,0.00,0.000000,,2013-11-11 05:44:00,
2013-11-10 23:54:00,39.0,30.0,-100.00,SW,221,4.0,10.0,69,0.00,,,0.00,0.000000,,2013-11-11 05:54:00,